Hourly Data Report for July 23, 2021

CAPE RACE (AUT)
NEWFOUNDLAND
Current Station Operator: ECCC - MSC

46°39'36.000" N
53°04'35.000" W
26.50 m
8401000
71800
WRA

Download Data

Hourly Data (July 2021)
Hourly Data Report for July 23, 2021
TIME
LST
Temp Definition
°C
Dew Point Definition
°C
Rel Hum Definition
%
Precip. Amount Definition
mm

Wind Dir Definition
10's deg

Wind Spd Definition
km/h
Visibility Definition
km
Stn Press Definition
kPa
Hmdx Definition


Wind Chill Definition


Weather Definition


00:30 11.1 LegendMM LegendMM 0.0 3 19   100.70     LegendNANA
01:30 11.2 LegendMM LegendMM 0.0 4 23   100.67     LegendNANA
02:30 11.2 LegendMM LegendMM 0.0 4 21   100.68     LegendNANA
03:30 11.3 LegendMM LegendMM 0.0 5 13   100.68     LegendNANA
04:30 11.4 LegendMM LegendMM 0.0 6 11   100.71     LegendNANA
05:30 11.5 LegendMM LegendMM 0.0 6 10   100.75     LegendNANA
06:30 11.6 LegendMM LegendMM 0.0 5 10   100.79     LegendNANA
07:30 11.8 LegendMM LegendMM 0.0 6 11   100.80     LegendNANA
08:30 12.2 LegendMM LegendMM 0.0 6 11   100.85     LegendNANA
09:30 12.6 LegendMM LegendMM 0.0 6 9   100.89     LegendNANA
10:30 12.9 LegendMM LegendMM 0.0 6 5   100.91     LegendNANA
11:30 13.7 LegendMM LegendMM 0.0 3 6   100.89     LegendNANA
12:30 14.4 LegendMM LegendMM 0.0 9 5   100.89     LegendNANA
13:30 15.0 LegendMM LegendMM 0.0 20 8   100.89     LegendNANA
14:30 13.6 LegendMM LegendMM 0.0 20 15   100.91     LegendNANA
15:30 15.2 LegendMM LegendMM 0.0 22 15   100.96     LegendNANA
16:30 14.3 LegendMM LegendMM 0.0 22 12   100.96     LegendNANA
17:30 13.8 LegendMM LegendMM 0.0 21 8   100.93     LegendNANA
18:30 14.5 LegendMM LegendMM 0.0 24 12   100.95     LegendNANA
19:30 14.0 LegendMM LegendMM 0.0 22 13   100.98     LegendNANA
20:30 14.0 LegendMM LegendMM 0.0 23 17   101.01     LegendNANA
21:30 13.6 LegendMM LegendMM 0.0 23 14   101.04     LegendNANA
22:30 13.8 LegendMM LegendMM 0.0 26 19   101.05     LegendNANA
23:30 14.0 LegendMM LegendMM 0.0 27 17   101.06     LegendNANA

Notes on Data Quality.

Legend

  • E = Estimated
  • M = Missing
  • NA = Not Available*
  • [empty] = Indicates an unobserved value
Date modified: